cliquez pour ajouter le site Runraid à vos favoris  English version (google)  Retour à l'accueil Ecrire à l'auteur du site Runraid : Michel Jourdan



Les prochaines courses


Les derniers résultats

cliquez pour visualiser la page complète relatant la chronologie des éruptions du Piton de la Fournaise
éruptions Piton de la Fournaise


Ile de La Réunion

 Diagonale des Fous 

Nouveautés du site

Ecrire au créateur du site : Michel Jourdan
Contact


2017-08-06 - Marathon de la Corniche

Pour consulter le palmarès d'un coureur, un clic sur son nom !

Vous avez des remarques, corrections, ... sur ces résultats , un clic sur --> pour me transmettre toute information concernant les classements


Marathon de la Corniche - 2017 : classement des 105 finishers
Place Nom Temps Cat. Club Sexe Clt/cat.
Place Nom Temps Cat. Club Sexe Clt/cat.
1 SUIRFA Sanion 02:38:15 SEM DENIV M 977
2 GEOFFROY FRANCK 02:48:28 V2M DA M 1 V2M 888
3 HARRISON Jules Jean Pierre 02:55:15 V2M COSPI M 2 V2M 895
4 GAUVIN DIDIER 02:56:21 V2M CTBP M 3 V2M 886
5 NOEL ALAIN 02:56:39 SEM M 2 SEM 938
6 LEE SONG YIN GINO 02:57:54 V1M DENIV M 1 V1M 911
7 ADELER JEAN 02:59:44 V1M CTBP M 2 V1M 850
8 BOYER JOSEPH 02:59:52 V1M M 3 V1M 859
9 BITROU THIERRY 03:00:46 V1M DENIV M 4 V1M 856
10 CHOWRIMOOTHOO CLYDE KERSLEY 03:04:47 SEM M 3 SEM 864
11 MALLARD JEAN FREDDY 03:06:47 SEM CTBP M 4 SEM 923
12 FLORENCY GERARD 03:09:23 V1M CASL M 5 V1M 880
13 FERRERE JIMMY 03:09:24 V1M M 6 V1M 878
14 PARENT OLIVIER 03:09:57 V1M M 7 V1M 941
15 MOREL PAUL 03:16:34 V1M M 8 V1M 933
16 MARTINS PIERRE YVES 03:17:40 SEM M 5 SEM 926
17 BARDEUR MICKAEL 03:20:19 V1M M 9 V1M 853
18 FONTAINE BERNARD 03:20:27 V1M M 10 V1M 881
19 HODGI Chantal 03:21:18 V2F CASM F 1ere F 898
20 BITROU GAILLARD ANNE 03:22:38 V1F DENIV F 2 F - 1 V1F 857
21 SAMSORA FREDERIC 03:23:08 V1M STASA M 11 V1M 956
22 LAW TCHI KUN JEAN BERNARD 03:25:06 V2M CSSDA M 4 V2M 908
23 FELICITE Jean 03:27:06 V1M M 12 V1M 973
24 MARTIN ERIC 03:27:08 V1M TCSA M 13 V1M 925
25 PERRAULT WILLY 03:29:28 SEM M 6 SEM 945
26 HOAREAU YANNICK PAUL 03:36:38 V1M M 14 V1M 897
27 FIGUERAS BENJAMIN 03:37:29 SEM M 7 SEM 879
28 INJIRAK Jean Alex 03:38:38 V1M M 15 V1M 971
29 MESSINE JEAN DANY 03:43:43 V1M M 16 V1M 928
30 PAYET YANNICK 03:43:47 V1M ACSP M 17 V1M 944
31 ROUGET Amelie 03:44:23 SEF F 3 F - 1 SEF 974
32 PAVIEL Phillippe 03:47:44 V2M ACSP M 5 V2M 969
33 WADAANE RAMZI 03:50:04 SEM USPGA M 8 SEM 964
34 GOURMELEN MATTHIEU 03:50:28 ESM M 1 ESM 890
35 DENNEMONT SYLVAIN 03:51:09 V2M ACBP M 6 V2M 873
36 LAUDE ISABELLE 03:51:13 V1F CAPC F 4 F - 2 V1F 907
37 BASTIDE FRANCK 03:51:48 SEM M 9 SEM 854
38 NAZE JEAN BERNARD 03:52:34 V2M M 7 V2M 936
39 BAUVIES PASCAL 03:54:43 V1M M 18 V1M 855
40 GOUVART ETIENNE 03:54:58 SEM M 10 SEM 891
41 FRANCE ERIC 03:57:27 V2M M 8 V2M 884
42 LEOCADIE Luca 03:58:56 V3M M 1 V3M 976
43 MAILLOT SERGES 04:00:09 V3M M 2 V3M 922
44 DONZEAUX FANNY 04:00:09 V1F F 5 F - 3 V1F 875
45 GAUVIN FRED 04:00:35 V1M M 19 V1M 887
46 PAYET JACQUES 04:03:03 V3M M 3 V3M 943
47 SALING MATHIEU 04:05:29 V1M M 20 V1M 953
48 DOLOU YANNICK 04:06:56 SEM M 11 SEM 874
49 DENIS PIERRE EDOUARD 04:07:04 SEM M 12 SEM 872
50 ORUS LINA 04:07:31 SEF F 6 F - 2 SEF 939
51 LACOSTE NICOLE 04:09:23 V1F F 7 F - 4 V1F 904
52 CARRON DAVID 04:11:28 V3M M 4 V3M 861
53 LACROIX FREDERIC 04:12:00 V2M M 9 V2M 905
54 LEFEVRE PATRICE 04:14:07 V1M M 21 V1M 912
55 POININ COULIN YOLAIN 04:14:37 V1M M 22 V1M 950
56 NEGOUAI CECILE 04:14:41 V1F F 8 F - 5 V1F 937
57 L'HOSPITALIER GILLES 04:15:37 V2M M 10 V2M 916
58 FONTES LAURENT 04:16:04 V2M M 11 V2M 883
59 NAYAGOM GILBERT 04:16:11 V1M CALS SUD M 23 V1M 935
60 MINIAMA MARIE LAURE 04:16:22 SEF F 9 F - 3 SEF 931
61 GRONDIN Francois Paul 04:16:38 V2M M 12 V2M 975
62 SALVADO FLORENCE 04:17:16 V1F F 10 F - 6 V1F 954
63 BARBE Michel 04:17:32 V3M M 5 V3M 983
64 CHERIFI AZIZ 04:21:29 SEM M 13 SEM 863
65 PAIGNE WILSON 04:22:08 V2M CALS SUD M 13 V2M 940
66 AMO MATHIEU 04:22:24 SEM M 14 SEM 851
67 JAVARY AUGUSTIN 04:25:57 V2M M 14 V2M 900
68 MAHERAULT LAeTITIA 04:26:42 SEF F 11 F - 4 SEF 920
69 TECHER JEAN FRANCOIS 04:27:30 V1M M 24 V1M 960
70 ROBERT DANY 04:27:49 V1M M 25 V1M 951
71 WEIGNER BRENT JAMES 04:28:10 V3M M 6 V3M 966
72 LECOMTE LIONEL 04:34:57 V1M M 26 V1M 910
73 PATISSIER JOSELITO 04:35:05 SEM M 15 SEM 942
74 BRASSAMIN Mahefanirina 04:37:26 SEF F 12 F - 5 SEF 970
75 DELMAS THOMAS 04:37:58 SEM M 16 SEM 871
76 HAREL GeRALDINE 04:38:07 V1F F 13 F - 7 V1F 894
77 LE MOUEL RAPHAEL 04:38:08 SEM M 17 SEM 909
78 LALLOUe NOLWENN 04:38:17 SEF F 14 F - 6 SEF 906
79 TARA TEDDY 04:40:52 V1M M 27 V1M 959
80 LAURENS Benoit 04:46:46 V1M M 28 V1M 978
81 MOREL JEAN BERNARD 04:47:35 V2M M 15 V2M 932
82 GRONDIN RAPHAEL ALIX MI 04:48:03 V4M STASA M 1 V4M 893
83 LUCQUIAUD BRUNO 04:49:10 V2M M 16 V2M 918
84 DAVID KILIAN 04:50:29 SEM M 18 SEM 868
85 GERARD GUENEAU DIANE 04:50:34 SEF F 15 F - 7 SEF 889
86 DAMOUR ISABELLE 04:50:45 V2F F 16 F - 2 V2F 867
87 MARCHAL CHRISTOPHE 04:50:46 SEM M 19 SEM 924
88 FONTAINE LAURENT 04:50:47 SEM M 20 SEM 882
89 PETON MORIENN 04:51:09 SEF F 17 F - 8 SEF 947
90 RONTARD PASCAL 04:58:30 V2M M 17 V2M 952
91 CINTAS CAMILLE 04:58:46 SEF F 18 F - 9 SEF 865
92 INGAR Yazid 04:59:22 V1M M 29 V1M 972
93 DELIRON WILLY 04:59:52 SEM M 21 SEM 870
94 THEVENIN JOSEPH EMMANUEL 04:59:55 V2M M 18 V2M 961
95 TIBERE ARIENDO 04:59:56 SEM M 22 SEM 962
96 LAURENS Nathalie 05:00:51 V1F F 19 F - 8 V1F 979
97 FUST M BERG THIERRY 05:02:25 V2M M 19 V2M 885
98 BROCHIER GILBERT 05:05:50 V3M M 7 V3M 860
99 PLISSON MARIE STEPHANE 05:06:08 V1F F 20 F - 9 V1F 948
100 SIMON GUILLAUME 05:07:40 V1M M 30 V1M 957
101 MAILLOT JEAN LOUIS 05:07:40 SEM M 23 SEM 921
102 LEVISSE CYRILLE 05:09:08 V1M M 31 V1M 915
103 MICHEL VINCENTE 05:10:03 SEM M 24 SEM 930
104 DEJEAN FREDERIC 05:16:46 V1M M 32 V1M 869
105 NARAYANIN HONORE 05:16:46 V2M M 20 V2M 934


ReferencementCe site est listé dans la catégorie Sport : Sports extrêmes Dictionnaire
| Accueil | La Réunion  Vue du ciel | Météo | Cyclones | Volcan | Cirques de Mafate , Cilaos , Salazie | Photos Randonnées | Randonnées Réunion: Randos Espiègle , Courses montagne | Diagonale des Fous |  Marathon des Sables | Voyages Les stats du site | Fonds écran | Plan du site | Blog de runraid | Galerie photos Sport Réunion |